Вернуться в каталог

CZ-6A DEB

АктивенSSO
NORAD 54506·DEBRIS·🇨🇳 China

Запущен Nov 11, 2022 с Taiyuan Satellite Launch Center

Loading…

Ближайшие Пролёты (ближайшие 24 часа)

TLE

СвежийSource: Space-Track

Эпоха: Sep 14, 2026, 00:48 UTC

1 54506U 22151JJ  26257.03362041  .00001395  00000-0  62318-3 0  9993
2 54506  98.8774 287.8622 0098816 327.6604  31.8540 14.21790941198298

Отслеживайте CZ-6A DEB в реальном времени с AllMySat

Download on the App Store